Location: Saratoga Springs
(43.0831°N, 73.7850°W)
Time: 02:54:23
(UTC-04:00)

Vanguard 1 Rocket - Pass Details

Date: 20 April 2024
Orbit: 651 x 4220 km, 34.3° (Epoch: 17 May)

Event Time Altitude Azimuth Distance (km) Brightness Sun altitude
Rises 19:27:21 0° 233° (SW) 3,020 10.7 2.1°
Reaches altitude 10° 19:29:36 10° 222° (SW) 2,227 9.8 1.8°
Maximum altitude 19:33:58 31° 159° (SSE) 1,554 8.3 1.0°
Drops below altitude 10° 19:40:28 10° 101° (E) 3,366 9.7 -0.2°
Sets 19:44:44 0° 92° (E) 4,903 10.5 -0.9°
